This is the latest recevied weather packets stored in our database for station/object EA7OC-10. If no packets are shown the sender has not sent any weather packets the latest 10 day(s).
| Time | Temp. | Humidity | Pressure | Rain* | Wind** | Luminosity | Snow |
|---|---|---|---|---|---|---|---|
| 1788473351 | 31.67° C | 20% | 1020.1 hPa | - | - | - | - |
| 1788472450 | 31.67° C | 21% | 1020 hPa | - | - | - | - |
| 1788471550 | 32.78° C | 20% | 1019.8 hPa | - | - | - | - |
| 1788470650 | 33.33° C | 21% | 1019.8 hPa | - | - | - | - |
| 1788469750 | 33.33° C | 20% | 1019.7 hPa | - | - | - | - |
| 1788468850 | 33.33° C | 20% | 1019.3 hPa | - | - | - | - |
| 1788467950 | 33.33° C | 20% | 1019.1 hPa | - | - | - | - |
| 1788467073 | 33.89° C | 20% | 1019 hPa | - | - | - | - |
| 1788466149 | 35° C | 20% | 1018.7 hPa | - | - | - | - |
| 1788465249 | 36.67° C | 20% | 1018.5 hPa | - | - | - | - |
| 1788464349 | 37.22° C | 20% | 1018.2 hPa | - | - | - | - |
| 1788463449 | 37.22° C | 20% | 1017.9 hPa | - | - | - | - |
| 1788462549 | 37.78° C | 20% | 1017.9 hPa | - | - | - | - |
| 1788461649 | 39.44° C | 20% | 1017.8 hPa | - | - | - | - |
| 1788460749 | 40.56° C | 20% | 1017.8 hPa | - | - | - | - |
| 1788459849 | 43.33° C | 19% | 1017.9 hPa | - | - | - | - |
| 1788458949 | 46.11° C | 20% | 1018 hPa | - | - | - | - |
| 1788458048 | 47.78° C | 20% | 1018 hPa | - | - | - | - |
| 1788457148 | 48.89° C | 20% | 1018.1 hPa | - | - | - | - |
| 1788456248 | 49.44° C | 20% | 1018.2 hPa | - | - | - | - |
| 1788455347 | 50.56° C | 20% | 1018.2 hPa | - | - | - | - |
| 1788454447 | 51.67° C | 21% | 1018.3 hPa | - | - | - | - |
| 1788453547 | 52.78° C | 20% | 1018.3 hPa | - | - | - | - |
| 1788452646 | 53.33° C | 21% | 1018.4 hPa | - | - | - | - |
| 1788451675 | 53.33° C | 21% | 1018.4 hPa | - | - | - | - |
* Rain since midnight (hover to see other rain measurements)
** Current wind speed in m/s (hover to see current wind gust speed)